Weather History for Rolla, ND

Change the Weather History Date:

Thursday, October 4, 2012

  Actual Average (KRUG) Record (KRUG)
Temperature  
Mean Temperature 32 °F -  
Max Temperature 37 °F 62 °F 92 °F (1963)
Min Temperature 28 °F 35 °F 16 °F (1988)
Degree Days  
Heating Degree Days 32    
Moisture  
Dew Point 30 °F    
Average Humidity 87    
Maximum Humidity 100    
Minimum Humidity 65    
Precipitation  
Precipitation 0.35 in - - ()
Sea Level Pressure  
Sea Level Pressure 30.23 in    
Wind  
Wind Speed 23 mph (NNW)    
Max Wind Speed 30 mph    
Max Gust Speed 39 mph    
Visibility 9 miles    
Events Rain , Snow    
Averages and records for this station are not official NWS values.
T = Trace of Precipitation, MM = Missing Value Source: NWS Daily Summary

Daily Weather History Graph

Daily Weather History Graph

Search for Another Location

Airport:

Trip Planner

Search our weather history database for the weather conditions in past years. The results will help you decide how hot, cold, wet, or windy it might be!

Date:

Astronomy

Oct. 04, 2012 Rise Set
Actual Time 7:43 AM CDT 7:09 PM CDT
Civil Twilight 7:11 AM CDT 7:41 PM CDT
Nautical Twilight 6:35 AM CDT 8:17 PM CDT
Astronomical Twilight 5:57 AM CDT 8:54 PM CDT
Moon 9:23 PM CDT (10/4) 12:25 PM CDT (10/4)
Length of Visible Light 12h 29m
Length of Day
11h 26m
Waning Gibbous, 82% of the Moon is Illuminated
Oct 4
Waning Gibbous
Oct 8
Last Quarter
Oct 15
New
Oct 21
First Quarter
Oct 29
Full

Hourly Weather History & Observations

Time (CDT) Temp. Windchill Dew Point Humidity Pressure Visibility Wind Dir Wind Speed Gust Speed Precip Events Conditions
12:15 AM 35.6 °F 23.7 °F 35.6 °F 100% 30.20 in 10.0 mi North 24.2 mph 32.2 mph N/A   Mostly Cloudy
12:35 AM 35.6 °F 23.4 °F 35.6 °F 100% 30.20 in 10.0 mi North 25.3 mph 31.1 mph N/A   Mostly Cloudy
12:55 AM 35.6 °F 23.7 °F 35.6 °F 100% 30.21 in 10.0 mi North 24.2 mph 33.4 mph N/A   Mostly Cloudy
1:15 AM 35.6 °F 23.7 °F 33.8 °F 93% 30.21 in 10.0 mi North 24.2 mph 29.9 mph N/A   Mostly Cloudy
1:35 AM 35.6 °F 23.7 °F 33.8 °F 93% 30.21 in 10.0 mi North 24.2 mph 32.2 mph N/A   Overcast
1:55 AM 35.6 °F 23.0 °F 33.8 °F 93% 30.21 in 10.0 mi North 27.6 mph 33.4 mph N/A   Overcast
2:15 AM 35.6 °F 23.4 °F 33.8 °F 93% 30.21 in 10.0 mi North 25.3 mph 31.1 mph N/A Rain Light Rain
2:35 AM 35.6 °F 23.7 °F 33.8 °F 93% 30.22 in 10.0 mi North 24.2 mph 29.9 mph N/A Rain Light Rain
2:55 AM 35.6 °F 24.2 °F 33.8 °F 93% 30.21 in 10.0 mi North 21.9 mph 32.2 mph N/A   Overcast
3:15 AM 33.8 °F 21.3 °F 32.0 °F 93% 30.21 in 10.0 mi North 24.2 mph 32.2 mph N/A   Mostly Cloudy
3:35 AM 33.8 °F 20.5 °F 33.8 °F 100% 30.20 in 8.0 mi North 27.6 mph 32.2 mph N/A Rain Light Rain
3:55 AM 33.8 °F 21.9 °F 33.8 °F 100% 30.21 in 10.0 mi North 21.9 mph 31.1 mph 0.01 in Rain Light Rain
4:15 AM 32.0 °F 19.8 °F 32.0 °F 100% 30.21 in 5.0 mi North 20.7 mph 25.3 mph 0.02 in   Scattered Clouds
4:35 AM 32.0 °F 19.2 °F 32.0 °F 100% 30.21 in 6.0 mi North 23.0 mph 28.8 mph 0.05 in   Mostly Cloudy
4:55 AM 32.0 °F 19.8 °F 32.0 °F 100% 30.21 in 7.0 mi North 20.7 mph 31.1 mph 0.06 in   Mostly Cloudy
5:15 AM 32.0 °F 18.6 °F 32.0 °F 100% 30.21 in 9.0 mi North 25.3 mph 32.2 mph N/A   Scattered Clouds
5:35 AM 32.0 °F 18.4 °F 32.0 °F 100% 30.21 in 10.0 mi North 26.5 mph 33.4 mph 0.02 in   Mostly Cloudy
5:55 AM 32.0 °F 18.9 °F 32.0 °F 100% 30.21 in 9.0 mi North 24.2 mph 29.9 mph 0.03 in   Mostly Cloudy
6:15 AM 32.0 °F 19.5 °F 32.0 °F 100% 30.21 in 10.0 mi North 21.9 mph 32.2 mph N/A   Mostly Cloudy
6:35 AM 32.0 °F 19.8 °F 32.0 °F 100% 30.21 in 5.0 mi North 20.7 mph 28.8 mph 0.01 in   Mostly Cloudy
6:55 AM 32.0 °F 19.2 °F 32.0 °F 100% 30.21 in 5.0 mi NNW 23.0 mph 29.9 mph 0.03 in   Scattered Clouds
7:15 AM 32.0 °F 19.2 °F 32.0 °F 100% 30.21 in 3.0 mi NNW 23.0 mph 28.8 mph 0.02 in Snow Light Snow
7:35 AM 32.0 °F 19.8 °F 32.0 °F 100% 30.21 in 3.0 mi NNW 20.7 mph 28.8 mph 0.05 in Snow Light Snow
7:55 AM 32.0 °F 20.1 °F 32.0 °F 100% 30.21 in 6.0 mi NNW 19.6 mph 26.5 mph 0.06 in   Mostly Cloudy
8:15 AM 32.0 °F 19.8 °F 32.0 °F 100% 30.21 in 4.0 mi NNW 20.7 mph 27.6 mph 0.01 in   Scattered Clouds
8:35 AM 32.0 °F 19.8 °F 32.0 °F 100% 30.21 in 5.0 mi NNW 20.7 mph 27.6 mph 0.02 in   Mostly Cloudy
8:55 AM 32.0 °F 19.8 °F 32.0 °F 100% 30.21 in 5.0 mi NNW 20.7 mph 29.9 mph 0.03 in   Scattered Clouds
9:15 AM 32.0 °F 20.1 °F 32.0 °F 100% 30.21 in 3.0 mi NNW 19.6 mph 28.8 mph N/A   Partly Cloudy
9:35 AM 32.0 °F 19.5 °F 32.0 °F 100% 30.21 in 5.0 mi NNW 21.9 mph 29.9 mph 0.02 in   Scattered Clouds
9:55 AM 32.0 °F 18.9 °F 32.0 °F 100% 30.21 in 7.0 mi NNW 24.2 mph 31.1 mph 0.03 in Rain Light Rain
10:15 AM 32.0 °F 18.9 °F 32.0 °F 100% 30.21 in 5.0 mi NNW 24.2 mph 31.1 mph N/A   Scattered Clouds
10:35 AM 33.8 °F 20.8 °F 33.8 °F 100% 30.21 in 10.0 mi NNW 26.5 mph 32.2 mph 0.01 in Rain Light Rain
10:55 AM 33.8 °F 20.3 °F 32.0 °F 93% 30.22 in 10.0 mi NNW 28.8 mph 34.5 mph 0.01 in Rain Light Rain
11:15 AM 33.8 °F 20.5 °F 32.0 °F 93% 30.22 in 10.0 mi NNW 27.6 mph 34.5 mph N/A Rain Light Rain
11:35 AM 33.8 °F 20.3 °F 32.0 °F 93% 30.22 in 10.0 mi NNW 28.8 mph 36.8 mph N/A Rain Light Rain
11:55 AM 35.6 °F 22.7 °F 32.0 °F 87% 30.22 in 10.0 mi NNW 28.8 mph 34.5 mph N/A Rain Light Rain
12:15 PM 35.6 °F 23.4 °F 32.0 °F 87% 30.22 in 10.0 mi NNW 25.3 mph 34.5 mph N/A   Mostly Cloudy
12:35 PM 35.6 °F 23.0 °F 32.0 °F 87% 30.23 in 8.0 mi NNW 27.6 mph 36.8 mph 0.01 in   Partly Cloudy
12:55 PM 35.6 °F 22.7 °F 32.0 °F 87% 30.23 in 5.0 mi NNW 28.8 mph 39.1 mph 0.03 in   Partly Cloudy
1:35 PM 35.6 °F 23.0 °F 32.0 °F 87% 30.23 in 5.0 mi NNW 27.6 mph 34.5 mph 0.03 in   Partly Cloudy
1:55 PM 35.6 °F 22.5 °F 32.0 °F 87% 30.22 in 5.0 mi NNW 29.9 mph 35.7 mph 0.04 in   Scattered Clouds
2:15 PM 35.6 °F 23.4 °F 32.0 °F 87% 30.22 in 5.0 mi NNW 25.3 mph 35.7 mph 0.01 in   Partly Cloudy
2:35 PM 35.6 °F 23.2 °F 32.0 °F 87% 30.22 in 10.0 mi NNW 26.5 mph 38.0 mph 0.02 in   Partly Cloudy
2:55 PM 37.4 °F 25.4 °F 32.0 °F 81% 30.22 in 10.0 mi NNW 27.6 mph 35.7 mph 0.02 in Rain Light Rain
3:15 PM 37.4 °F 25.6 °F 28.4 °F 70% 30.22 in 10.0 mi NNW 26.5 mph 38.0 mph N/A Rain Light Rain
3:35 PM 35.6 °F 23.2 °F 28.4 °F 75% 30.23 in 10.0 mi NNW 26.5 mph 33.4 mph N/A   Overcast
3:55 PM 35.6 °F 23.2 °F 28.4 °F 75% 30.23 in 10.0 mi NNW 26.5 mph 36.8 mph N/A   Overcast
4:15 PM 35.6 °F 22.7 °F 28.4 °F 75% 30.23 in 10.0 mi NNW 28.8 mph 34.5 mph N/A Rain Light Rain
4:35 PM 37.4 °F 25.4 °F 26.6 °F 65% 30.23 in 10.0 mi NNW 27.6 mph 36.8 mph N/A   Overcast
4:55 PM 37.4 °F 26.1 °F 26.6 °F 65% 30.23 in 10.0 mi NNW 24.2 mph 31.1 mph N/A   Overcast
5:15 PM 37.4 °F 25.9 °F 26.6 °F 65% 30.23 in 10.0 mi NNW 25.3 mph 34.5 mph N/A   Scattered Clouds
5:35 PM 35.6 °F 23.2 °F 26.6 °F 70% 30.23 in 10.0 mi North 26.5 mph 31.1 mph N/A   Clear
5:55 PM 35.6 °F 24.2 °F 24.8 °F 65% 30.24 in 10.0 mi North 21.9 mph 32.2 mph N/A   Clear
6:15 PM 35.6 °F 24.2 °F 24.8 °F 65% 30.24 in 10.0 mi North 21.9 mph 31.1 mph N/A   Clear
6:35 PM 35.6 °F 25.5 °F 24.8 °F 65% 30.24 in 10.0 mi NNW 17.3 mph 23.0 mph N/A   Clear
6:55 PM 33.8 °F 23.9 °F 24.8 °F 70% 30.24 in 10.0 mi NNW 15.0 mph 20.7 mph N/A   Clear
7:15 PM 32.0 °F 22.1 °F 24.8 °F 75% 30.25 in 10.0 mi NNW 13.8 mph 20.7 mph N/A   Clear
7:35 PM 32.0 °F 22.1 °F 24.8 °F 75% 30.25 in 10.0 mi NNW 13.8 mph 19.6 mph N/A   Clear
7:55 PM 32.0 °F 21.6 °F 23.0 °F 69% 30.25 in 10.0 mi North 15.0 mph 20.7 mph N/A   Clear
8:15 PM 32.0 °F 21.6 °F 23.0 °F 69% 30.25 in 10.0 mi NNW 15.0 mph - N/A   Clear
8:35 PM 32.0 °F 21.2 °F 23.0 °F 69% 30.26 in 10.0 mi NNW 16.1 mph - N/A   Clear
8:55 PM 32.0 °F 21.2 °F 23.0 °F 69% 30.26 in 10.0 mi North 16.1 mph 20.7 mph N/A   Clear
9:15 PM 30.2 °F 18.9 °F 23.0 °F 75% 30.26 in 10.0 mi NNW 16.1 mph - N/A   Clear
9:35 PM 30.2 °F 18.9 °F 23.0 °F 75% 30.26 in 10.0 mi NNW 16.1 mph 20.7 mph N/A   Partly Cloudy
9:55 PM 30.2 °F 18.5 °F 23.0 °F 75% 30.26 in 10.0 mi NNW 17.3 mph 23.0 mph N/A   Scattered Clouds
10:15 PM 30.2 °F 18.5 °F 23.0 °F 75% 30.26 in 10.0 mi NNW 17.3 mph 24.2 mph N/A   Partly Cloudy
10:35 PM 30.2 °F 18.1 °F 23.0 °F 75% 30.26 in 10.0 mi NNW 18.4 mph 23.0 mph N/A   Mostly Cloudy
10:55 PM 28.4 °F 16.2 °F 23.0 °F 80% 30.26 in 10.0 mi NNW 17.3 mph 23.0 mph N/A   Scattered Clouds
11:15 PM 28.4 °F 14.7 °F 23.0 °F 80% 30.26 in 10.0 mi NNW 21.9 mph 28.8 mph N/A   Mostly Cloudy
11:35 PM 30.2 °F 18.1 °F 23.0 °F 75% 30.25 in 10.0 mi NNW 18.4 mph 26.5 mph N/A   Mostly Cloudy
11:55 PM 28.4 °F 16.2 °F 23.0 °F 80% 30.25 in 10.0 mi NNW 17.3 mph 24.2 mph N/A   Scattered Clouds